Choose a state:
Most recent flow and stage for Idaho
(Stations highlighted in red are currently above flood stage)
USGS
station
ID
USGS station name NWS
flood
stage
(ft)
Most recent
stage
(ft)
Most recent
flow
(cfs)
Historical
peaks
(cfs)
Most recent
local
date/time
NWS
station
ID
10039500 BEAR RIVER AT BORDER, WY 7.5 2.66 Ice 4,880 2022-12-08 17:30:00 BRBW4
10068500 BEAR RIVER AT PESCADERO ID 6.2 2.15 Ice 4,280 2022-12-08 17:45:00 BRAI1
10092700 BEAR RIVER AT IDAHO-UTAH STATE LINE 18.1 9.16 339 4,870 2022-12-08 17:45:00 BIUI1
10125500 MALAD RIVER AT WOODRUFF ID   2.79 20.5 2,530 2022-12-08 17:30:00  
12305000 KOOTENAI RIVER AT LEONIA, ID   16.43 19,600 123,000 2022-12-08 16:15:00 LEOI1
12306500 MOYIE RIVER AT EASTPORT ID 9 3.68 Ice 9,400 2022-12-08 16:45:00 EASI1
12308000 KOOTENAI RIVER BEL MOYIE RIVER NR BONNERS FERRY ID   75.10 19,200 61,300 2022-12-08 16:30:00 KRMI1
12308500 KOOTENAI R AT CROSSPORT NR BONNERS FERRY, ID   64.77

 

2022-12-08 16:00:00  
12309500 KOOTENAI RIVER AT BONNERS FERRY ID 64 50.07

 

130,000 2022-12-08 16:15:00 BFEI1
12310100 KOOTENAI RIVER @ TRIBAL HATCHERY NR BONNERS FERRY   53.21 16,200 61,100 2022-12-08 16:00:00  
12314000 KOOTENAI R AT KLOCKMANN RANCH NR BONNERS FERRY ID   47.91

 

  2022-12-08 16:30:00 KRKI1
12318500 KOOTENAI RIVER NR COPELAND ID   46.20

 

124,000 2022-12-08 16:30:00  
12321500 BOUNDARY CREEK NR PORTHILL ID   9.40 Ice 4,080 2022-12-08 16:00:00  
12322000 KOOTENAI RIVER AT PORTHILL ID   45.10 17,800 125,000 2022-12-08 16:45:00 PORI1
12391950 CLARK FORK RIVER BELOW CABINET GORGE DAM ID   9.06 10,200 134,000 2022-12-08 16:45:00 CBBI1
12392155 LIGHTNING CREEK AT CLARK FORK ID   9.06 15.3 16,400 2022-12-08 16:45:00 LTCI1
12392300 PACK RIVER NR COLBURN ID   15.77 Ice 6,880 2022-12-08 16:30:00 PAKI1
12393000 PRIEST LAKE AT OUTLET NR COOLIN ID   -0.37

 

2022-12-08 16:30:00 PSLI1
12393501 PRIEST R OUTFLOW NR COOLIN, ID   14.70 350 8,210 2022-12-08 16:15:00 PSRI1
12395000 Priest River near Priest River, ID   1.16 450 10,800 2022-12-08 16:15:00 PRTI1
12395500 PEND OREILLE RIVER AT NEWPORT WA   32.83 12,800 200,000 2022-12-08 16:45:00 ATGW1
12411000 NF COEUR D ALENE R AB SHOSHONE CK NR PRICHARD ID   1.59 Ice 22,000 2022-12-08 16:15:00 PRCI1
12413000 NF COEUR D ALENE RIVER AT ENAVILLE ID 72 57.04 261 61,000 2022-12-08 16:45:00 ENVI1
12413125 CANYON CREEK AB MOUTH AT WALLACE, ID   20.10 11.8 823 2022-12-08 15:45:00 CCRI1
12413130 NINEMILE CREEK AB MOUTH AT WALLACE, ID   12.30 3.23 350 2022-12-08 16:00:00 NMLI1
12413131 SF COEUR D ALENE R ABV PLACER CR AT WALLACE ID   12.01 42.1 1,800 2022-12-08 16:30:00 SFWI1
12413210 SF COEUR D ALENE AT ELIZABETH PARK NR KELLOGG ID   23.86 75.8 9,600 2022-12-08 16:30:00 SKGI1
12413355 SF COEUR D ALENE RIVER ABV PINE CR NR PINEHURST ID   87.69 82.9 6,000 2022-12-08 16:30:00 SFPI1
12413470 SF Coeur D Alene River nr Pinehurst, ID   5.64 114 11,700 2022-12-08 16:00:00 PSTI1
12413500 COEUR D ALENE RIVER NR CATALDO ID 43 32.67 355 79,000 2022-12-08 16:15:00 CTLI1
12413860 COEUR D ALENE RIVER NR HARRISON ID   19.81 427 27,300 2022-12-08 16:20:00 HARI1
12413875 St Joe River at Red Ives Ranger Station, ID   1.54 Ice 4,800 2022-12-08 16:00:00 SJII1
12414500 ST JOE RIVER AT CALDER, ID 13 5.34 Ice 53,000 2022-12-08 16:30:00 CLDI1
12414900 ST MARIES RIVER NR SANTA, ID   5.08 Ice 12,300 2022-12-08 16:15:00 SATI1
12415070 ST JOE RIVER AT SAINT MARIES, ID 32.5 23.98

 

  2022-12-08 16:30:00 SJMI1
12415135 ST JOE RIVER AT RAMSDELL NR ST MARIES ID   23.52 689 33,800 2022-12-08 16:30:00 SJRI1
12415500 COEUR D ALENE LAKE AT COEUR D ALENE ID 2133 22.65

 

  2022-12-08 16:30:00 COEI1
12417650 SPOKANE RIVER BLW BLACKWELL NR COEUR D ALENE ID   23.23 Rat 43,100 2022-12-08 16:06:00  
12419000 Spokane River near Post Falls, ID   7.78 2,040 50,100 2022-12-08 16:30:00 PTFI1
13010065 SNAKE RIVER AB JACKSON LAKE AT FLAGG RANCH WY 10 2.57 Ice 15,000 2022-12-08 17:30:00 FLGW4
13011000 SNAKE RIVER NEAR MORAN, WY   2.41 297 15,100 2022-12-08 17:45:00 JLKW4
13011500 PACIFIC CREEK AT MORAN, WY 8 8.52 Eqp 5,790 2022-12-08 09:00:00 PACW4
13011900 BUFFALO FORK AB LAVA CREEK NR MORAN WY 8.5 1.69 Ice 6,540 2022-12-08 17:30:00 BFKW4
13015000 GROS VENTRE RIVER AT ZENITH, WY   17.90 Ssn 6,170 2022-10-05 15:45:00 GVZW4
13018750 SNAKE RIVER BELOW FLAT CREEK, NEAR JACKSON, WY 10 0.98 1,100 30,200 2022-12-08 17:30:00 JKSW4
13022500 SNAKE RIVER ABOVE RESERVOIR, NEAR ALPINE, WY   2.67 1,370 38,600 2022-12-08 17:30:00 ALPW4
13023000 GREYS RIVER ABOVE RESERVOIR, NEAR ALPINE, WY   6.65 Ice 7,230 2022-12-08 17:30:00 GREW4
13027500 SALT RIVER ABOVE RESERVOIR, NEAR ETNA, WY 5.5 1.85 405 5,090 2022-12-08 17:30:00 SALW4
13032500 SNAKE RIVER NR IRWIN ID   4.42 977 40,400 2022-12-08 17:30:00 PALI1
13034450 RAINEY CK AT SWAN VALLEY IDAHO   1.01

 

  2022-11-14 15:00:00 RACI1
13037500 SNAKE RIVER NR HEISE ID 8 1.48 1,190 60,000 2022-12-08 17:30:00 HEII1
13038000 DRY BED NR RIRIE ID   4.65 0.00 5,630 2022-12-08 17:45:00  
13038500 SNAKE RIVER AT LORENZO ID   2.70 746 43,000 2022-12-08 17:15:00 LORI1
13039000 HENRYS LAKE NR LAKE ID   14.39

 

  2022-12-08 17:30:00 HLKI1
13039500 HENRYS FORK NR LAKE ID   4.55 Ice 907 2022-12-08 17:45:00 HENI1
13040500 Big Springs At Big Springs ID   1.30 117   2022-12-08 16:45:00  
13042500 HENRYS FORK NR ISLAND PARK ID   2.37 173 3,030 2022-12-08 17:45:00 ISLI1
13046000 HENRYS FORK NR ASHTON ID   2.83 702 8,140 2022-12-08 17:15:00 HFAI1
13046995 FALL RIVER AB YELLOWSTONE CANAL NR SQUIRREL ID   5.54 Ice 6,930 2022-12-08 17:45:00 FAYI1
13047500 FALL RIVER NR SQUIRREL ID   0.91 Ice 7,060 2022-12-08 17:45:00 FALI1
13047600 FALL RIVER NR ASHTON ID   3.07 Ice 6,460 2022-12-08 17:45:00 FRAI1
13049500 FALL RIVER NR CHESTER ID 6.5 4.57 Ice 9,310 2022-12-08 17:15:00 CHEI1
13050500 HENRYS FORK AT ST ANTHONY ID 7 3.84 Ice 14,000 2022-12-08 17:45:00 ANTI1
13052200 TETON RIVER AB SOUTH LEIGH CREEK NR DRIGGS ID 4.2 1.37 Ice 2,980 2022-12-08 17:00:00 DGGI1
13055000 TETON RIVER NR ST ANTHONY ID 6 1.78 Ice 1,700,000 2022-12-08 17:15:00 TEAI1
13055250 NF TETON RIVER NR SUGAR CITY ID   5.48 Ice 1,880 2022-12-08 17:30:00 NFTI1
13055340 SF TETON RIVER NEAR REXBURG ID   5.77 Ice 3,410 2022-12-08 17:15:00 TTXI1
13056500 HENRYS FORK NR REXBURG ID 9.5 3.96 1,330 79,000 2022-12-08 17:15:00 REXI1
13057000 SNAKE RIVER NR MENAN ID 8.5 2.08 2,370 30,400 2022-12-08 17:30:00 MENI1
13057132 GREAT WESTERN SPILLBACK NR IDAHO FALLS ID   -0.44 0.00 991 2022-12-08 17:30:00  
13057155 SNAKE RIVER AB EAGLE ROCK NR IDAHO FALLS ID 13.2 7.49 Ice 48,600 2022-12-08 17:15:00 SIFI1
13057300 GRAYS LAKE DIV TO BLACKFOOT R BASIN NR WAYAN, ID   2.78 0.07 618 2022-12-08 17:15:00 GLBI1
13057500 GRAYS LAKE OUTLET NR HERMAN ID   1.86 Ssn 62.8 2022-10-20 15:00:00  
13057940 WILLOW CREEK BL TEX CREEK NR RIRIE ID 5.3 2.98 Ice 2,900 2022-12-08 17:45:00 WTXI1
13058000 WILLOW CREEK NR RIRIE ID 12.1 0.65 0.00 5,080 2022-12-08 17:30:00 RIRI1
13058510 SAND CREEK NEAR UCON ID   0.26 0.00 1,040 2022-12-08 17:30:00  
13058520 WILLOW CREEK FLOODWAY CHANNEL NR UCON ID   0.62 0.00 1,100 2022-12-08 17:30:00  
13058529 WILLOW CR FLOODWAY CHANNEL AT MOUTH NR ID FALLS ID   8.07 0.00 1,040 2022-12-08 17:30:00  
13058530 WILLOW CREEK BLW FLOODWAY CHANNEL NR UCON ID   2.53 0.00 249 2022-12-08 17:30:00  
13060000 SNAKE RIVER NR SHELLEY ID 12.5 5.49 2,260 75,000 2022-12-08 17:15:00 SHYI1
13062500 SNAKE RIVER AT BLACKFOOT ID 10.5 5.13 Ice 43,200 2022-12-08 17:15:00 SNAI1
13063000 BLACKFOOT RIVER AB RESERVOIR NR HENRY ID 5.5 2.14 Ssn 2,150 2022-12-08 17:45:00 BKHI1
13065500 BLACKFOOT RIVER NR HENRY ID   1.11 Ssn 1,640 2022-12-08 17:45:00  
13066000 BLACKFOOT RIVER NR SHELLEY ID 8.5 6.12 Ice 3,220 2022-12-08 17:30:00 SHLI1
13068300 BLACKFOOT RIVER BELOW NORTH CANAL AT BLACKFOOT ID   2.69 78.5 1,760 2022-12-08 17:45:00  
13068495 BLACKFOOT RIVER BYPASS NR BLACKFOOT ID   4.18 1.45 994 2022-12-08 17:30:00  
13068500 BLACKFOOT RIVER NR BLACKFOOT ID 5.8 2.54 77.0 657 2022-12-08 17:30:00 BLFI1
13069500 SNAKE RIVER NR BLACKFOOT ID 11 2.84 2,050 53,500 2022-12-08 17:15:00 BFTI1
13073000 PORTNEUF RIVER AT TOPAZ ID 4 2.44 96.7 7,120 2022-12-08 17:15:00 TOPI1
13075000 MARSH CREEK NR MCCAMMON ID 5.5 2.55 37.7 1,120 2022-12-08 17:15:00 MCCI1
13075500 PORTNEUF RIVER AT POCATELLO ID 8.5 3.76 151 2,990 2022-12-08 17:45:00 PIHI1
13075910 PORTNEUF RIVER NR TYHEE ID 6.2 4.13 186 1,740 2022-12-08 17:00:00 PTYI1
13075983 SPRING CREEK AT SHEEPSKIN RD NR FORT HALL ID   4.38 205 605 2022-12-08 17:15:00 SPSI1
13077000 SNAKE RIVER AT NEELEY ID 9.5 2.07 308 48,400 2022-12-08 17:30:00 AMFI1
13078000 RAFT RIVER AB ONEMILE CREEK NR MALTA ID 6.5 5.60 2.65 2,060 2022-12-08 17:15:00 RRVI1
13079300 CASSIA CREEK BELOW BLACKSMITH CK, ID   2.02 Ice 48.1 2022-12-08 17:45:00  
13079901 RAFT RIVER NR MOUTH AT (YALE) RAFT RIVER, ID   0.49 Rat 290 2022-12-08 16:45:00  
13081500 SNAKE R NR MINIDOKA ID (AT HOWELLS FERRY) 11.5 2.99 640 47,500 2022-12-08 17:30:00 MDMI1
13082500 GOOSE CREEK AB TRAPPER CREEK NR OAKLEY ID 5.5 1.88 Ice 3,550 2022-12-08 17:30:00 GOSI1
13083000 TRAPPER CREEK NR OAKLEY ID   4.84 11.8 292 2022-12-08 17:30:00 TCOI1
13087900 MILNER LAKE AT MILNER DAM ID   9.09

 

  2022-12-08 17:45:00  
13087995 SNAKE RIVER GAGING STATION AT MILNER ID   0.63 0.00 26,300 2022-12-08 17:30:00 MILI1
13089500 DEVILS WASHBOWL SPRING NR KIMBERLY 10S 18E 04AAD1S   1.44 8.56   2022-12-08 17:30:00 DWSI1
13090500 SNAKE RIVER NR TWIN FALLS ID   1.95 563 40,000 2022-12-08 17:30:00 STFI1
13092747 ROCK CREEK AB HWY 30/93 XING AT TWIN FALLS ID   5.59 50.4 623 2022-12-08 17:45:00 TFAI1
13093383 SNAKE RIVER AT PIGEON COVE NR TWIN FALLS, ID   95.01 940 9,410 2022-12-08 17:30:00 SRPI1
13093385 Snake R above Crystal Springs Hatchery   87.00

 

2022-12-08 17:00:00  
13093397 Snake R nr State Hatchery   90.99

 

2022-11-28 13:15:00  
13093670 Snake R blw Cedar Draw   94.55

 

  2022-12-08 17:45:00  
13094000 SNAKE RIVER NR BUHL ID   1.21 1,610 37,100 2022-12-08 17:15:00 BUHI1
13095175 BRIGGS SPRING AT HEAD NEAR BUHL ID   3.96 94.6   2022-12-08 17:30:00 BSPI1
13095500 BOX CANYON SPRINGS NR WENDELL ID   1.28 315   2022-12-08 17:15:00 BXCI1
13105000 SALMON FALLS CREEK NR SAN JACINTO NV 10 5.56 42.5 4,040 2022-12-08 16:45:00 SFLN2
13106500 SALMON RIVER CANAL CO RES NR ROGERSON ID   7.88

 

2022-12-08 17:00:00 SFRI1
13108150 SALMON FALLS CREEK NR HAGERMAN ID   4.45 110 7,500 2022-12-08 17:00:00 HAGI1
13112000 CAMAS CREEK AT CAMAS ID 9.2 2.41 0.00 1,500 2022-12-08 17:30:00 CCCI1
13115000 MUD LAKE NR TERRETON ID   2.21

 

  2022-12-08 17:30:00 MUDI1
13116500 MEDICINE LODGE CREEK NR SMALL ID 7.7 7.54 Ice 481 2022-12-08 17:15:00 MEDI1
13118700 LITTLE LOST RIVER BL WET CREEK NR HOWE ID 3.4 5.62 Ice 509 2022-12-08 07:30:00 LLRI1
13118975 LITTLE LOST RIVER AB FLOOD DIVERSION NR HOWE ID   6.33 Ice 314 2022-12-08 17:15:00  
13119000 LITTLE LOST RIVER NR HOWE, ID 4.5 1.11 Ice 450 2022-12-08 17:15:00 LLHI1
13120000 NF BIG LOST RIVER AT WILD HORSE NR CHILLY ID 5.1 1.37 22.5 2,170 2022-12-08 17:15:00 BLRI1
13120500 BIG LOST RIVER AT HOWELL RANCH NR CHILLY ID 4 2.00 Ice 5,010 2022-12-08 17:00:00 HWRI1
13122000 THOUSAND SPRINGS CREEK NR CHILLY ID   7.53 Ice 97.3 2022-12-08 17:00:00  
13124265 WARM SPRINGS CREEK BELOW DIVERSION NR MACKAY ID   9.40 38.6 54.7 2022-12-08 17:30:00  
13126000 MACKAY RES NR MACKAY ID   45.24

 

  2022-12-08 16:45:00 MACI1
13127000 BIG LOST RIVER BL MACKAY RES NR MACKAY ID 4.3 1.65 86.2 2,990 2022-12-08 17:45:00 MAKI1
13128900 LOWER CEDAR CREEK AB DIVS NR MACKAY ID   9.80 5.27 310 2022-12-08 17:30:00  
13130300 BIG LOST RIVER NR LESLIE ID   4.93

 

  2022-12-08 17:45:00  
13131000 ANTELOPE CREEK NR DARLINGTON, ID 6 6.04 Ice 833 2022-12-08 17:00:00 ACKI1
13132100 BIG LOST RIVER BELOW MOORE DIV NR MOORE ID   9.37 0.00 144 2022-12-08 16:45:00  
13132373 BIG LOST RIVER AT ARCO AT SUNSET ROAD ID   5.13 0.00 563 2022-12-08 17:45:00  
13132500 BIG LOST RIVER NR ARCO ID 6.5 2.03 0.00 2,500 2022-12-08 17:15:00 ARCI1
13132513 INL DIVERSION AT HEAD NEAR ARCO ID   48.01 Ssn 928 2022-12-08 17:45:00 INEI1
13132520 BIG LOST RIVER BL INL DIV NEAR ARCO ID   41.74 Ssn 671 2022-12-08 17:00:00 BLOI1
13132535 BIG LOST R AT LINCOLN BLVD BRIDGE NR ATOMIC CITY 14.8 12.81 Ssn 510 2022-12-08 17:30:00 LINI1
13132565 BIG LOST RIVER AB BIG LOST RIVER SINKS NR HOWE ID   3.56 Ssn 579 2022-12-08 17:45:00 BLSI1
13135500 BIG WOOD RIVER NR KETCHUM ID 8 4.75 42.2 3,360 2022-12-08 17:00:00 BWKI1
13135520 NF BIG WOOD RIVER NR SAWTOOTH NRA HQ NR KETCHUM ID 7.3 5.13 Ice 1,270 2022-12-08 17:30:00 NFBI1
13136550 WARM SPRINGS CR AT GATES RD NR KETCHUM, ID   9.63 37.4 603 2022-12-08 17:00:00  
13137000 WARM SPRINGS CREEK NEAR KETCHUM ID 12.2 9.40 31.4 1,660 2022-12-08 17:30:00 WRMI1
13137300 TRAIL CREEK NR SUN VALLEY, ID   6.51 Ice 801 2022-12-08 17:30:00  
13137500 TRAIL CREEK AT KETCHUM ID 7 5.53 Ice 750 2022-12-08 17:15:00 TCKI1
13138000 EAST FORK BIG WOOD RIVER AT GIMLET ID 7.9 5.08 Ice 822 2022-12-08 17:15:00 EFGI1
13139510 BIG WOOD RIVER AT HAILEY ID TOTAL FLOW 5 1.35 126 7,880 2022-12-08 16:45:00 HALI1
13140335 BIG WOOD R AT S BROADFORD BRIDGE NR BELLEVUE, ID   6.56 107 3,070 2022-12-08 16:45:00 BWBI1
13140800 BIG WOOD RIVER AT STANTON CROSSING NR BELLEVUE ID 12 4.47 14.7 5,450 2022-12-08 17:15:00 SCBI1
13141500 CAMAS CREEK NR BLAINE ID   1.93 1.96 9,780 2022-12-08 17:45:00 CMCI1
13142500 BIG WOOD RIVER BL MAGIC DAM NR RICHFIELD ID 9 1.84 3.07 10,000 2022-12-08 17:15:00 BWMI1
13147900 LITTLE WOOD RIVER AB HIGH FIVE CREEK NR CAREY ID 5.4 1.69 Ice 2,560 2022-12-08 17:45:00 LWOI1
13148500 LITTLE WOOD RIVER NR CAREY ID 5.8 0.79 Ice 20,000 2022-12-08 17:45:00 WODI1
13150430 SILVER CREEK AT SPORTSMAN ACCESS NR PICABO ID 8.3 6.72 105 572 2022-12-08 16:45:00 PBOI1
13152500 MALAD RIVER NR GOODING ID   -0.40 0.00 8,860 2022-12-08 17:30:00 MLDI1
13154500 SNAKE RIVER AT KING HILL ID   6.40 5,820 47,200 2022-12-08 17:45:00 SKHI1
13159800 CANYON CR AT OREGON TRAIL XING NR MOUNTAIN HOME ID   1.86 2.53 1,420 2022-12-08 16:45:00 CCXI1
13161930 BIG JACKS CREEK AT PARKER TRAIL NR GRASMERE, ID   4.40 Rat 5.31 2022-12-08 17:45:00  
13168500 BRUNEAU RIVER NR HOT SPRING ID 9.5 4.65 66.0 6,860 2022-12-08 17:00:00 HOTI1
13171500 CJ STRIKE RES NR GRAND VIEW ID   54.74

 

  2022-12-08 17:15:00 CJSI1
13172500 SNAKE RIVER NR MURPHY ID   20.98 6,610 47,300 2022-12-08 17:17:00 SWAI1
13176400 EF OWYHEE RIVER AT CRUTCHER CROSSING, ID   8.22 25.7 10,800 2022-12-08 17:00:00 ORCI1
13185000 BOISE RIVER NR TWIN SPRINGS ID   5.33 287 22,700 2022-12-08 17:30:00 BTSI1
13186000 SF BOISE RIVER NR FEATHERVILLE ID 7.2 1.43 183 10,900 2022-12-08 17:30:00 BRFI1
13190500 SF BOISE RIVER AT ANDERSON RANCH DAM ID   2.99 299 9,850 2022-12-08 17:15:00 ANDI1
13200000 MORES CREEK AB ROBIE CREEK NR ARROWROCK DAM ID 8.8 2.53 Ice 5,440 2022-12-08 17:30:00 MORI1
13201500 LUCKY PEAK LAKE NR BOISE ID   2951.09

 

  2022-12-08 17:15:00 LUCI1
13206000 BOISE RIVER AT GLENWOOD BRIDGE NR BOISE ID   3.76 258 13,000 2022-12-08 17:45:00 BIGI1
13206305 BOISE RIVER SOUTH CHANNEL AT EAGLE ID   2.77 225 4,140 2022-12-08 17:15:00 BSCI1
13206400 EAGLE DRAIN AT EAGLE, ID   10.63 7.10 77.3 2022-12-08 16:45:00  
13210810 FIFTEENMILE CREEK NR MIDLAND BLVD NR MIDDLETON, ID   0.61 30.2 450 2022-12-08 17:15:00  
13210824 N MIDDLETON DRAIN (MILL SLOUGH) AT MIDDLETON ID   5.00 13.4 97.5 2022-12-08 17:00:00  
13210831 SOUTH MIDDLETON DRAIN AT MIDDLETON ID   0.53 19.8 165 2022-12-08 17:00:00  
13210980 MASON CREEK AT CALDWELL ID   5.09 37.8 238 2022-12-08 17:30:00  
13210986 W HARTLEY GULCH NR CALDWELL ID   0.91 3.27 49.1 2022-12-08 17:00:00  
132109867 EAST HARTLEY ABV BACKWATER NR CALDWELL, ID   3.66 11.4 106 2022-12-08 17:45:00  
13211205 BOISE RIVER AT CALDWELL, ID   6.47 496 9,490 2022-12-08 17:45:00 CDWI1
13212549 CONWAY GULCH BELOW 1ST ST AT NOTUS, ID   6.06 13.0 96.2 2022-12-08 17:00:00  
13212890 DIXIE DRAIN NR WILDER ID   1.41 89.4 540 2022-12-08 17:15:00  
13213000 BOISE RIVER NR PARMA ID   8.42 786 9,400 2022-12-08 17:30:00 PARI1
13213072 SAND RUN GULCH NR PARMA ID   3.81 72.0 766 2022-12-08 17:15:00  
13213100 SNAKE RIVER AT NYSSA OR   5.71 8,030 57,900 2022-12-08 17:45:00 SNYI1
13235000 SOUTH FORK PAYETTE RIVER AT LOWMAN, ID 7.5 3.16 Ice 8,980 2022-12-08 17:30:00 PRLI1
13236500 DEADWOOD RIVER BL DEADWOOD RES NR LOWMAN ID   2.07 49.0 2,580 2022-12-08 17:45:00 DRBI1
13237920 MIDDLE FORK PAYETTE RIVER NR CROUCH ID 11.8 5.60 Ice 4,880 2022-12-08 17:15:00 MFPI1
13238500 PAYETTE LAKE AT MCCALL ID   0.97

 

2022-12-08 17:15:00  
13239000 NF PAYETTE RIVER AT MCCALL ID   1.76 23.2 4,980 2022-12-08 17:30:00 PAYI1
13240000 LAKE FORK PAYETTE RIVER AB JUMBO CR NR MCCALL ID   3.21 Ssn 18,000 2022-10-25 10:30:00 LFPI1
13246000 NF PAYETTE RIVER NR BANKS ID   4.13 296 8,830 2022-12-08 17:00:00 BNKI1
13247500 PAYETTE RIVER NR HORSESHOE BEND ID   2.65 831 27,000 2022-12-08 17:30:00 HRSI1
13249500 PAYETTE RIVER NR EMMETT ID 10.5 2.23 971 32,700 2022-12-08 16:45:00 EMMI1
13250000 PAYETTE RIVER NR LETHA ID   8.64 1,060 27,000 2022-12-08 17:30:00 PLEI1
13251000 PAYETTE RIVER NR PAYETTE ID 12 4.84 1,220 32,000 2022-12-08 17:30:00 PRPI1
13258500 WEISER RIVER NR CAMBRIDGE ID 12 2.72 87.4 22,800 2022-12-08 17:45:00 CAMI1
13265500 CRANE CREEK AT MOUTH NR WEISER ID   1.54 5.42 4,800 2022-12-08 17:00:00 CRWI1
13266000 WEISER RIVER NR WEISER ID 9.5 4.08 161 34,500 2022-12-08 17:00:00 WSRI1
13269000 SNAKE RIVER AT WEISER ID 12 3.31 9,640 120,000 2022-12-08 17:45:00 WEII1
13290450 SNAKE RIVER AT HELLS CANYON DAM ID-OR STATE LINE   63.16 8,090 103,000 2022-12-08 16:30:00 HCDI1
13295000 VALLEY CREEK AT STANLEY ID 3.1 0.92 119 2,210 2022-12-08 17:00:00 VCSI1
13296000 YANKEE FORK SALMON RIVER NR CLAYTON ID 11 6.46 Ice 4,900 2022-12-08 17:15:00 YFSI1
13296500 SALMON RIVER BL YANKEE FORK NR CLAYTON ID 9.5 2.03 426 10,500 2022-12-08 17:45:00 SRYI1
13297330 THOMPSON CREEK NR CLAYTON ID   3.07 2.79 442 2022-12-08 17:45:00 TOMI1
13297350 BRUNO CREEK NR CLAYTON ID   2.61 0.23 42.0 2022-10-31 11:30:00  
13297355 SQUAW CREEK BL BRUNO CREEK NR CLAYTON ID 6.2 4.04 Ice 900 2022-12-08 17:30:00 SQUI1
13297380 SALMON RIVER AB EAST FORK NR CLAYTON ID   23.19 Ice 9,290 2022-12-08 17:00:00  
13302005 PAHSIMEROI RIVER AT ELLIS ID   1.60 189 710 2022-12-08 17:00:00 PAHI1
13302500 SALMON RIVER AT SALMON ID 7.5 2.06 Ice 17,700 2022-12-08 17:00:00 SMNI1
13304050 Big Timber Creek Abv Mouth at Leadore ID   14.87 Ice   2022-12-08 10:15:00  
13304700 Lemhi River near McFarland, ID   3.34

 

  2022-12-08 17:15:00  
13305000 LEMHI RIVER NR LEMHI ID 6.5 4.50 Ice 2,430 2022-12-08 17:00:00 LERI1
13305310 LEMHI RIVER BELOW L5 DIVERSION NEAR SALMON, ID   1.77 Ice 2,920 2022-12-08 17:30:00  
13306370 PANTHER CREEK AT COBALT, ID   4.58 Ice 1,470 2022-12-08 17:45:00  
13306385 NAPIAS CREEK BELOW ARNETT CREEK NEAR LEESBURG, ID   5.32 Ice 1,020 2022-12-08 17:00:00  
13307000 SALMON RIVER NR SHOUP ID   2.60 Ice 25,700 2022-12-08 17:30:00  
13309220 MF SALMON RIVER AT MF LODGE NR YELLOW PINE ID   1.47 492 20,900 2022-12-08 17:45:00 MIDI1
13310199 MF SALMON RIVER AT MOUTH NR SHOUP, ID   30.70 Ice 29,300 2022-12-08 17:45:00  
13310700 SF SALMON RIVER NR KRASSEL RANGER STATION ID   2.21 Ice 9,710 2022-12-08 17:45:00 KRSI1
13310800 EFSF SALMON R ABV MEADOW CRK NR STIBNITE, ID   14.80 4.71 163 2022-10-25 12:00:00  
13310850 MEADOW CREEK NR STIBNITE, ID   3.35 2.26 169 2022-10-25 16:00:00  
13311000 EF OF SF SALMON RIVER AT STIBNITE, ID   4.83 7.83 430 2022-12-08 17:00:00 SFSI1
13311250 EFSF SALMON R ABV SUGAR CRK NR STIBNITE, ID   10.31 Ice 527 2022-12-08 17:15:00  
13311450 SUGAR CREEK NR STIBNITE, ID   6.81 Ice 375 2022-12-08 17:15:00 SUGI1
13313000 JOHNSON CREEK AT YELLOW PINE ID   2.10 Ice 6,250 2022-12-08 17:00:00 JOHI1
13316500 LITTLE SALMON RIVER AT RIGGINS ID 10 2.34 162 12,600 2022-12-08 17:00:00 RIGI1
13317000 SALMON RIVER AT WHITE BIRD ID 32 12.41 3,800 130,000 2022-12-08 16:45:00 WHBI1
13317660 SNAKE RIVER AT McDUFF RAPIDS AT CHINA GARDEN ID   4.87 12,200 148,000 2022-12-08 16:45:00 SNMI1
13336500 SELWAY RIVER NR LOWELL ID 14 3.26 Ice 48,900 2022-12-08 16:00:00 SELI1
13337000 LOCHSA RIVER NR LOWELL ID   1.97 Ice 35,100 2022-12-08 16:00:00 LOCI1
13337099 CLEAR CK AT KOOSKIA NATIONAL FISH HATCHERY   12.08 Ice 5,160 2022-12-08 15:45:00  
13338500 SF CLEARWATER RIVER AT STITES ID 8 2.68 Ice 19,500 2022-12-08 16:15:00 STII1
13338950 LAWYER CREEK AT KAMIAH ID   62.50

 

283 2022-12-08 16:45:00  
13339500 LOLO CREEK NR GREER ID   8.42 82.2 7,750 2022-11-14 15:30:00  
13340000 CLEARWATER RIVER AT OROFINO ID 17 2.64 Ice 87,300 2022-12-08 16:15:00 ORFI1
13340600 NF CLEARWATER RIVER NR CANYON RANGER STATION ID   5.68 795 37,500 2022-12-08 16:45:00  
13341050 CLEARWATER RIVER NR PECK ID   3.90 3,460 127,000 2022-12-08 16:30:00 PEKI1
13341140 BIG CANYON CREEK NR PECK ID   3.79 16.3 2,080 2022-12-08 15:45:00  
13341570 POTLATCH RIVER BEL LITTLE POTLATCH CR NR SPALDING   4.19 57.2 19,100 2022-12-08 16:00:00 PRII1
13342450 LAPWAI CREEK NR LAPWAI, ID   2.68 27.8 5,010 2022-12-08 16:45:00 LAPI1
13342500 CLEARWATER RIVER AT SPALDING ID 18 3.44 3,660 177,000 2022-12-08 16:00:00 SPDI1
13345000 PALOUSE RIVER NR POTLATCH, ID 15 5.35 Ice 14,600 2022-12-08 16:30:00 PLOI1
13346800 PARADISE CR AT UNIVERSITY OF IDAHO AT MOSCOW ID 9.2 3.98 1.26 1,060 2022-12-08 16:45:00 PACI1